Location: Oulou
(10.7667°N, 12.5167°W)
Time: 08:03:38
(UTC+00:00)

Cosmos 405 Rocket - Pass Details

Date: 20 September 2019
Orbit: 491 x 554 km, 81.3° (Epoch: 20 October)

Event Time Altitude Azimuth Distance (km) Brightness Sun altitude
Rises 20:22:03 0° 199° (SSW) 2,575 6.4 -24.0°
Reaches altitude 10° 20:24:16 10° 207° (SSW) 1,686 5.5 -24.5°
Maximum altitude 20:27:43 38° 276° (W) 763 4.0 -25.4°
Drops below altitude 10° 20:31:09 10° 346° (NNW) 1,675 5.5 -26.2°
Sets 20:33:21 0° 354° (N) 2,556 6.4 -26.7°
